When you browse on this site, cookies collect data to enhance your experience and personalize the content and advertising you see.
Visit our Privacy Policy to learn more. By continuing to use the site, you agree to this use of cookies and data.
  • In Hungary
  • List of Countries
  • For 7 days
  • Water Temperature
  • Satellite Maps
  • Weather Map
  • News
  • Weather Widgets
  • user-avatar
    Login

    Hourly Weather Candelaria

    Today, 19 June, Wednesday

    Time Temperature Precipitation Wind Pressure Humidity
    00:00 +23°C° 0 mm 2 mps 756 mmHg 90%
    01:00 +21°C° 0 mm 2 mps 756 mmHg 89%
    02:00 +20°C° 0 mm 2 mps 756 mmHg 87%
    03:00 +20°C° 0 mm 2 mps 756 mmHg 86%
    04:00 +20°C° 0 mm 2 mps 756 mmHg 85%
    05:00 +19°C° 0 mm 2 mps 756 mmHg 84%
    06:00 +21°C° 0 mm 3 mps 756 mmHg 74%
    07:00 +24°C° 0 mm 3 mps 757 mmHg 64%
    08:00 +26°C° 0 mm 3 mps 757 mmHg 54%
    09:00 +27°C° 0 mm 3 mps 757 mmHg 55%
    10:00 +27°C° 0 mm 3 mps 757 mmHg 56%
    11:00 +28°C° 0 mm 3 mps 758 mmHg 57%
    12:00 +28°C° 0 mm 3 mps 757 mmHg 59%
    13:00 +28°C° 0 mm 3 mps 757 mmHg 60%
    14:00 +28°C° 0 mm 3 mps 757 mmHg 62%
    15:00 +27°C° 0 mm 3 mps 757 mmHg 65%
    16:00 +27°C° 0 mm 3 mps 757 mmHg 69%
    17:00 +26°C° 0 mm 3 mps 757 mmHg 72%
    18:00 +25°C° 0 mm 3 mps 757 mmHg 76%
    19:00 +24°C° 0 mm 3 mps 757 mmHg 80%
    20:00 +22°C° 0 mm 3 mps 758 mmHg 84%
    21:00 +22°C° 0 mm 3 mps 758 mmHg 84%
    22:00 +21°C° 0 mm 3 mps 758 mmHg 84%
    23:00 +21°C° 0 mm 3 mps 758 mmHg 83%

    Tomorrow, 20 June, Thursday

    Time Temperature Precipitation Wind Pressure Humidity
    00:00 +20°C° 0 mm 3 mps 758 mmHg 82%
    01:00 +20°C° 0 mm 3 mps 757 mmHg 80%
    02:00 +19°C° 0 mm 3 mps 757 mmHg 78%
    03:00 +19°C° 0 mm 3 mps 757 mmHg 78%
    04:00 +19°C° 0 mm 3 mps 757 mmHg 77%
    05:00 +19°C° 0 mm 3 mps 756 mmHg 76%
    06:00 +21°C° 0 mm 3 mps 757 mmHg 69%
    07:00 +24°C° 0 mm 3 mps 757 mmHg 61%
    08:00 +25°C° 0 mm 3 mps 757 mmHg 53%
    09:00 +26°C° 0 mm 4 mps 757 mmHg 53%
    10:00 +27°C° 0 mm 4 mps 758 mmHg 52%
    11:00 +28°C° 0 mm 4 mps 758 mmHg 51%
    12:00 +28°C° 0 mm 5 mps 758 mmHg 53%
    13:00 +28°C° 0 mm 5 mps 757 mmHg 54%
    14:00 +29°C° 0 mm 5 mps 757 mmHg 55%
    15:00 +28°C° 0 mm 5 mps 757 mmHg 58%
    16:00 +27°C° 0 mm 5 mps 757 mmHg 61%
    17:00 +27°C° 0 mm 5 mps 757 mmHg 64%
    18:00 +26°C° 0 mm 5 mps 757 mmHg 68%
    19:00 +23°C° 0 mm 5 mps 757 mmHg 72%
    20:00 +22°C° 0 mm 5 mps 757 mmHg 76%
    21:00 +22°C° 0 mm 5 mps 758 mmHg 74%
    22:00 +22°C° 0 mm 5 mps 758 mmHg 71%
    23:00 +22°C° 0 mm 5 mps 758 mmHg 68%

    Day after tomorrow, 21 June, Friday

    Time Temperature Precipitation Wind Pressure Humidity
    00:00 +21°C° 0 mm 5 mps 758 mmHg 69%
    01:00 +21°C° 0 mm 5 mps 757 mmHg 69%
    02:00 +20°C° 0 mm 5 mps 757 mmHg 69%
    03:00 +20°C° 0 mm 5 mps 757 mmHg 70%
    04:00 +20°C° 0 mm 4 mps 757 mmHg 71%
    05:00 +19°C° 0 mm 4 mps 757 mmHg 72%
    06:00 +21°C° 0 mm 5 mps 757 mmHg 64%
    07:00 +23°C° 0 mm 5 mps 757 mmHg 56%
    08:00 +26°C° 0 mm 5 mps 758 mmHg 48%
    09:00 +27°C° 0 mm 5 mps 758 mmHg 49%
    10:00 +28°C° 0 mm 5 mps 758 mmHg 51%
    11:00 +29°C° 0 mm 5 mps 758 mmHg 52%
    12:00 +29°C° 0 mm 5 mps 757 mmHg 52%
    13:00 +29°C° 0 mm 5 mps 757 mmHg 53%
    14:00 +29°C° 0 mm 5 mps 757 mmHg 53%
    15:00 +28°C° 0 mm 5 mps 757 mmHg 56%
    16:00 +28°C° 0 mm 5 mps 757 mmHg 59%
    17:00 +27°C° 0 mm 5 mps 756 mmHg 61%
    18:00 +26°C° 0 mm 5 mps 757 mmHg 64%
    19:00 +25°C° 0 mm 5 mps 757 mmHg 67%
    20:00 +23°C° 0 mm 4 mps 757 mmHg 70%
    21:00 +22°C° 0 mm 4 mps 757 mmHg 66%
    22:00 +22°C° 0 mm 4 mps 757 mmHg 63%
    23:00 +21°C° 0 mm 4 mps 758 mmHg 59%

    22 June, Saturday

    Time Temperature Precipitation Wind Pressure Humidity
    00:00 +21°C° 0 mm 4 mps 757 mmHg 60%
    01:00 +20°C° 0 mm 4 mps 756 mmHg 63%
    02:00 +20°C° 0 mm 4 mps 756 mmHg 66%
    03:00 +19°C° 0 mm 4 mps 756 mmHg 66%
    04:00 +19°C° 0 mm 4 mps 756 mmHg 67%
    05:00 +19°C° 0 mm 3 mps 756 mmHg 67%
    06:00 +21°C° 0 mm 3 mps 756 mmHg 59%
    07:00 +23°C° 0 mm 4 mps 756 mmHg 51%
    08:00 +26°C° 0 mm 4 mps 757 mmHg 43%
    09:00 +27°C° 0 mm 4 mps 757 mmHg 45%
    10:00 +28°C° 0 mm 4 mps 757 mmHg 46%
    11:00 +29°C° 0 mm 4 mps 757 mmHg 48%
    12:00 +29°C° 0 mm 4 mps 756 mmHg 49%
    13:00 +29°C° 0 mm 4 mps 756 mmHg 50%
    14:00 +29°C° 0 mm 4 mps 756 mmHg 52%
    15:00 +28°C° 0 mm 4 mps 756 mmHg 55%
    16:00 +28°C° 0 mm 4 mps 755 mmHg 59%
    17:00 +27°C° 0 mm 4 mps 755 mmHg 63%
    18:00 +26°C° 0 mm 3 mps 755 mmHg 67%
    19:00 +24°C° 0 mm 3 mps 756 mmHg 71%
    20:00 +22°C° 0 mm 3 mps 756 mmHg 75%
    21:00 +22°C° 0 mm 3 mps 756 mmHg 71%
    22:00 +22°C° 0 mm 3 mps 756 mmHg 68%
    23:00 +22°C° 0 mm 3 mps 756 mmHg 65%

    23 June, Sunday

    Time Temperature Precipitation Wind Pressure Humidity
    00:00 +21°C° 0 mm 3 mps 755 mmHg 65%
    01:00 +21°C° 0 mm 2 mps 755 mmHg 66%
    02:00 +21°C° 0 mm 2 mps 754 mmHg 67%
    03:00 +21°C° 0 mm 2 mps 754 mmHg 66%
    04:00 +21°C° 0 mm 2 mps 754 mmHg 65%
    05:00 +20°C° 0 mm 2 mps 754 mmHg 63%
    06:00 +23°C° 0 mm 2 mps 754 mmHg 61%
    07:00 +25°C° 0 mm 2 mps 755 mmHg 58%
    08:00 +27°C° 0 mm 2 mps 755 mmHg 55%
    09:00 +28°C° 0 mm 2 mps 755 mmHg 55%
    10:00 +29°C° 0 mm 2 mps 755 mmHg 56%
    11:00 +29°C° 0 mm 2 mps 755 mmHg 57%
    12:00 +29°C° 0 mm 2 mps 755 mmHg 59%
    13:00 +29°C° 0 mm 2 mps 754 mmHg 61%
    14:00 +29°C° 0 mm 2 mps 754 mmHg 63%
    15:00 +29°C° 0 mm 2 mps 754 mmHg 66%
    16:00 +28°C° 0 mm 2 mps 754 mmHg 70%
    17:00 +28°C° 0 mm 2 mps 753 mmHg 73%
    18:00 +27°C° 0 mm 2 mps 754 mmHg 77%
    19:00 +26°C° 0 mm 2 mps 754 mmHg 81%
    20:00 +25°C° 0 mm 2 mps 754 mmHg 85%
    21:00 +25°C° 0 mm 2 mps 754 mmHg 84%
    22:00 +24°C° 0 mm 1 mps 754 mmHg 83%
    23:00 +24°C° 0 mm 1 mps 754 mmHg 82%

    24 June, Monday

    Time Temperature Precipitation Wind Pressure Humidity
    00:00 +24°C° 0 mm 1 mps 754 mmHg 84%
    01:00 +23°C° 0 mm 1 mps 754 mmHg 85%
    02:00 +22°C° 0 mm 1 mps 754 mmHg 86%
    03:00 +22°C° 0 mm 1 mps 753 mmHg 87%
    04:00 +22°C° 0 mm 1 mps 753 mmHg 88%
    05:00 +22°C° 0 mm 1 mps 753 mmHg 89%
    06:00 +23°C° 0 mm 1 mps 754 mmHg 83%
    07:00 +25°C° 0 mm 1 mps 754 mmHg 76%
    08:00 +27°C° 0 mm 1 mps 754 mmHg 69%
    09:00 +28°C° 0 mm 1 mps 754 mmHg 70%
    10:00 +28°C° 0 mm 2 mps 754 mmHg 70%
    11:00 +28°C° 0 mm 2 mps 755 mmHg 71%
    12:00 +28°C° 0 mm 2 mps 755 mmHg 73%
    13:00 +28°C° 0 mm 2 mps 755 mmHg 75%
    14:00 +28°C° 0 mm 1 mps 754 mmHg 77%
    15:00 +27°C° 0 mm 1 mps 754 mmHg 78%
    16:00 +27°C° 0 mm 1 mps 754 mmHg 80%
    17:00 +27°C° 0 mm 1 mps 754 mmHg 82%
    18:00 +26°C° 0 mm 1 mps 755 mmHg 85%
    19:00 +26°C° 0 mm 1 mps 755 mmHg 89%
    20:00 +25°C° 0 mm 1 mps 755 mmHg 92%
    21:00 +25°C° 0 mm 1 mps 756 mmHg 93%
    22:00 +24°C° 0 mm 1 mps 756 mmHg 93%
    23:00 +24°C° 0 mm 1 mps 756 mmHg 94%
    Show more